Location: Bieujac
(44.5398°N, 0.1549°W)
Time: 00:18:38
(UTC+00:00)

NOSS 3-3 (A) - Pass Details

Date: 25 February 2020
Orbit: 833 x 1379 km, 63.4° (Epoch: 03 April)

Event Time Altitude Azimuth Distance (km) Brightness Sun altitude
Exits shadow 05:11:42 18° 224° (SW) 2,025 5.3 -17.5°
Maximum altitude 05:16:10 77° 308° (NW) 967 3.9 -16.7°
Drops below altitude 10° 05:22:48 10° 36° (NE) 2,846 7.0 -15.6°
Sets 05:25:37 0° 38° (NE) 3,888 7.7 -15.1°
